Location: Kerb�bon
(47.7970°N, 3.3487°W)
Time: 10:23:59
(UTC+00:00)

Terra - Pass Details

Date: 12 May 2021
Orbit: 701 x 703 km, 98.2° (Epoch: 20 June)

Event Time Altitude Azimuth Distance (km) Brightness Sun altitude
Exits shadow 22:15:59 35° 183° (S) 1,140 2.4 -19.1°
Maximum altitude 22:17:59 70° 258° (WSW) 750 1.9 -19.2°
Drops below altitude 10° 22:22:45 10° 342° (NNW) 2,183 5.6 -19.6°
Sets 22:25:02 0° 345° (NNW) 3,105 6.7 -19.8°
